EW4321 Weather Reports


Display with metric or nautical units.
time (UTC)temp
F
wind
direction
speed
MPH
gust
MPH
rain 1hr
in
rain 24hr
in
rain mn
in
humidity
%
barometer
mb
20260504231604 57 191 9.0 17.0 0.00 0.00 0.00 87 1012.6
20260504231104 58 193 11.0 17.0 0.00 0.00 0.00 87 1012.5
20260504230624 58 193 10.0 18.0 0.00 0.00 0.00 86 1012.5
20260504230104 58 191 12.0 18.0 0.00 0.00 0.00 86 1012.5
20260504225604 58 189 11.0 18.0 0.00 0.00 0.00 86 1012.5
20260504225103 59 191 12.0 19.0 0.00 0.00 0.00 85 1012.6
20260504224604 59 190 11.0 19.0 0.00 0.00 0.00 85 1012.6
20260504224103 59 189 12.0 17.0 0.00 0.00 0.00 85 1012.5
20260504223625 59 194 12.0 18.0 0.00 0.00 0.00 85 1012.6
20260504223104 59 186 12.0 20.0 0.00 0.00 0.00 85 1012.6
20260504222604 59 196 14.0 20.0 0.00 0.00 0.00 85 1012.6
20260504222103 59 188 11.0 21.0 0.00 0.00 0.00 85 1012.6
20260504221604 59 196 13.0 21.0 0.00 0.00 0.00 84 1012.5
20260504221104 59 190 12.0 19.0 0.00 0.00 0.00 84 1012.5
20260504220604 59 192 13.0 19.0 0.00 0.00 0.00 84 1012.5
20260504220104 60 188 13.0 18.0 0.00 0.00 0.00 84 1012.5
20260504215603 60 184 11.0 19.0 0.00 0.00 0.00 85 1012.5
20260504215104 59 189 13.0 19.0 0.00 0.00 0.00 84 1012.5
20260504214604 59 187 12.0 19.0 0.00 0.00 0.00 85 1012.4
20260504214103 59 183 11.0 22.0 0.00 0.00 0.00 85 1012.5
20260504213604 59 179 13.0 23.0 0.00 0.00 0.00 84 1012.5
20260504213103 59 181 15.0 23.0 0.00 0.00 0.00 84 1012.5
20260504212603 60 180 12.0 20.0 0.00 0.00 0.00 84 1012.4
20260504212103 59 180 12.0 21.0 0.00 0.00 0.00 84 1012.4
20260504211604 59 175 15.0 23.0 0.00 0.00 0.00 84 1012.5
20260504211104 60 175 15.0 23.0 0.00 0.00 0.00 83 1012.5
20260504210604 60 174 14.0 23.0 0.00 0.00 0.00 83 1012.4
20260504210104 60 175 14.0 25.0 0.00 0.00 0.00 83 1012.4
20260504205604 60 178 12.0 25.0 0.00 0.00 0.00 83 1012.5
20260504204604 61 181 14.0 22.0 0.00 0.00 0.00 82 1012.5
20260504204104 61 181 13.0 22.0 0.00 0.00 0.00 82 1012.5
20260504203603 61 173 13.0 19.0 0.00 0.00 0.00 83 1012.5
20260504203104 60 176 13.0 17.0 0.00 0.00 0.00 83 1012.4
20260504202604 60 175 12.0 22.0 0.00 0.00 0.00 83 1012.5
20260504202104 60 183 16.0 25.0 0.00 0.00 0.00 83 1012.5
20260504201603 60 183 14.0 25.0 0.00 0.00 0.00 83 1012.5
20260504201125 60 180 13.0 22.0 0.00 0.00 0.00 83 1012.7
20260504200604 60 177 13.0 22.0 0.00 0.00 0.00 83 1012.6
20260504200103 60 172 12.0 22.0 0.00 0.00 0.00 83 1012.7
20260504195604 60 175 15.0 22.0 0.00 0.00 0.00 83 1012.7
20260504195104 60 172 16.0 25.0 0.00 0.00 0.00 82 1012.7
20260504194603 60 170 16.0 25.0 0.00 0.00 0.00 81 1012.8
20260504194104 60 177 13.0 24.0 0.00 0.00 0.00 82 1012.9
20260504193604 60 174 14.0 24.0 0.00 0.00 0.00 82 1012.9
20260504193103 60 179 12.0 21.0 0.00 0.00 0.00 82 1012.9
20260504192604 60 176 14.0 22.0 0.00 0.00 0.00 82 1013.0
20260504192104 60 174 16.0 23.0 0.00 0.00 0.00 81 1012.9
20260504191603 60 174 14.0 23.0 0.00 0.00 0.00 82 1013.0
20260504191104 60 173 14.0 23.0 0.00 0.00 0.00 82 1013.1
20260504190604 60 171 15.0 23.0 0.00 0.00 0.00 81 1013.2
20260504190104 60 172 13.0 23.0 0.00 0.00 0.00 82 1013.3
20260504185604 60 174 16.0 23.0 0.00 0.00 0.00 81 1013.4
20260504185104 61 176 15.0 23.0 0.00 0.00 0.00 80 1013.5
20260504184604 61 168 13.0 22.0 0.00 0.00 0.00 80 1013.5
20260504184103 61 173 15.0 22.0 0.00 0.00 0.00 80 1013.6
20260504183604 61 175 15.0 20.0 0.00 0.00 0.00 79 1013.7
20260504183125 61 177 11.0 20.0 0.00 0.00 0.00 80 1013.8
20260504182603 61 171 13.0 21.0 0.00 0.00 0.00 79 1013.7
20260504182105 62 170 13.0 21.0 0.00 0.00 0.00 79 1013.8
20260504181624 62 178 11.0 20.0 0.00 0.00 0.00 80 1013.9
20260504181104 61 169 12.0 22.0 0.00 0.00 0.00 81 1013.9
20260504180604 61 186 12.0 22.0 0.00 0.00 0.00 81 1014.0
20260504180104 61 183 14.0 24.0 0.00 0.00 0.00 80 1014.0
20260504175605 61 178 11.0 24.0 0.00 0.00 0.00 80 1014.1
20260504175104 61 173 11.0 20.0 0.00 0.00 0.00 81 1014.1
20260504174603 61 168 14.0 21.0 0.00 0.00 0.00 81 1014.2
20260504174104 61 179 13.0 21.0 0.00 0.00 0.00 81 1014.4
20260504173604 61 188 12.0 19.0 0.00 0.00 0.00 81 1014.4
20260504173104 61 169 13.0 20.0 0.00 0.00 0.00 81 1014.5
20260504172604 61 173 13.0 20.0 0.00 0.00 0.00 80 1014.5
20260504172104 61 171 13.0 20.0 0.00 0.00 0.00 81 1014.5
20260504171604 61 178 12.0 21.0 0.00 0.00 0.00 82 1014.6
20260504171124 61 175 12.0 21.0 0.00 0.00 0.00 82 1014.7
20260504170604 60 181 11.0 19.0 0.00 0.00 0.00 83 1014.7
20260504170105 60 180 11.0 20.0 0.00 0.00 0.00 82 1014.7
20260504160103 59 186 11.0 20.0 0.00 0.00 0.00 83 1015.3
20260504151104 59 185 10.0 19.0 0.00 0.00 0.00 82 1015.6
20260504150603 59 183 12.0 18.0 0.00 0.00 0.00 82 1015.7
20260504150104 59 180 13.0 20.0 0.00 0.00 0.00 82 1015.6
20260504141104 58 184 12.0 21.0 0.00 0.00 0.00 84 1015.8
20260504140604 58 180 11.0 21.0 0.00 0.00 0.00 84 1015.9
20260504140104 58 180 10.0 19.0 0.00 0.00 0.00 84 1016.0
20260504130624 58 198 10.0 19.0 0.00 0.00 0.00 81 1016.3
20260504130103 57 183 9.0 17.0 0.00 0.00 0.00 81 1016.4
20260504120124 56 205 7.0 15.0 0.00 0.00 0.00 79 1016.7
20260504110604 52 211 9.0 18.0 0.00 0.00 0.00 84 1017.0
20260504110103 52 218 12.0 18.0 0.00 0.00 0.00 84 1017.0
20260504100603 50 217 11.0 17.0 0.00 0.00 0.00 81 1016.9
20260504100103 50 216 11.0 18.0 0.00 0.00 0.00 81 1016.9
20260504090104 50 215 10.0 17.0 0.00 0.00 0.00 78 1016.8
20260504081603 51 224 11.0 16.0 0.00 0.00 0.00 81 1016.6
20260504081103 51 217 12.0 16.0 0.00 0.00 0.00 82 1016.6
20260504080604 51 226 12.0 17.0 0.00 0.00 0.00 82 1016.6
20260504070103 52 234 9.0 16.0 0.00 0.00 0.00 82 1016.2
20260504060125 52 239 9.0 14.0 0.00 0.00 0.00 83 1016.0
20260504050603 52 235 10.0 14.0 0.00 0.00 0.00 81 1015.8
20260504050103 52 235 9.0 15.0 0.00 0.00 0.00 81 1015.8
20260504045603 52 230 11.0 15.0 0.00 0.00 0.00 81 1015.8
20260504045103 52 229 10.0 14.0 0.00 0.00 0.00 81 1015.7
20260504044606 52 231 10.0 16.0 0.00 0.00 0.00 81 1015.7
20260504044103 52 229 10.0 16.0 0.00 0.00 0.00 80 1015.8
20260504043625 52 226 9.0 15.0 0.00 0.00 0.00 80 1015.8
20260504043103 52 217 10.0 15.0 0.00 0.00 0.00 79 1015.8
20260504042103 52 229 10.0 17.0 0.00 0.00 0.00 79 1015.7
20260504041603 52 229 12.0 17.0 0.00 0.00 0.00 78 1015.7
20260504041103 52 226 9.0 12.0 0.00 0.00 0.00 78 1015.7
20260504040604 52 221 9.0 13.0 0.00 0.00 0.00 78 1015.7
20260504040124 52 222 9.0 13.0 0.00 0.00 0.00 78 1015.6
20260504035603 52 226 8.0 14.0 0.00 0.00 0.00 79 1015.5
20260504035104 52 228 8.0 14.0 0.00 0.00 0.00 77 1015.5
20260504034103 52 223 8.0 12.0 0.00 0.00 0.00 75 1015.4
20260504033603 52 226 8.0 13.0 0.00 0.00 0.00 75 1015.4
20260504033103 52 221 7.0 13.0 0.00 0.00 0.00 75 1015.4
20260504032604 52 226 8.0 13.0 0.00 0.00 0.00 74 1015.4
20260504032103 52 230 10.0 13.0 0.00 0.00 0.00 74 1015.4
20260504031603 52 233 8.0 14.0 0.00 0.00 0.00 74 1015.4
20260504031103 52 238 8.0 14.0 0.00 0.00 0.00 74 1015.4
20260504030603 52 228 10.0 12.0 0.00 0.00 0.00 73 1015.4
20260504025603 52 232 8.0 13.0 0.00 0.00 0.00 72 1015.3
20260504025146 52 237 8.0 13.0 0.00 0.00 0.00 72 1015.3
20260504024603 53 240 9.0 13.0 0.00 0.00 0.00 70 1015.3
20260504024103 53 241 9.0 13.0 0.00 0.00 0.00 71 1015.4
20260504023604 53 237 8.0 13.0 0.00 0.00 0.00 71 1015.3
20260504023104 53 233 8.0 12.0 0.00 0.00 0.00 72 1015.3
20260504022624 53 234 8.0 13.0 0.00 0.00 0.00 73 1015.3
20260504022103 53 230 9.0 13.0 0.00 0.00 0.00 74 1015.3
20260504021604 53 224 9.0 13.0 0.00 0.00 0.00 74 1015.3
20260504021103 53 230 8.0 12.0 0.00 0.00 0.00 74 1015.3
20260504020604 53 231 8.0 12.0 0.00 0.00 0.00 74 1015.3
20260504020103 53 229 8.0 12.0 0.00 0.00 0.00 73 1015.3
20260504015603 53 231 8.0 12.0 0.00 0.00 0.00 72 1015.2
20260504015104 53 229 8.0 12.0 0.00 0.00 0.00 71 1015.2
20260504014603 53 226 8.0 11.0 0.00 0.00 0.00 72 1015.2
20260504014103 53 233 7.0 11.0 0.00 0.00 0.00 74 1015.1
20260504013603 53 229 7.0 11.0 0.00 0.00 0.00 74 1015.1
20260504013124 53 230 8.0 13.0 0.00 0.00 0.00 73 1015.1
20260504012604 54 225 8.0 13.0 0.00 0.00 0.00 73 1015.0
20260504012103 53 229 9.0 12.0 0.00 0.00 0.00 70 1015.0
20260504011604 53 228 7.0 11.0 0.00 0.00 0.00 72 1015.0
20260504011103 54 234 8.0 10.0 0.00 0.00 0.00 74 1014.9
20260504010603 54 234 6.0 11.0 0.00 0.00 0.00 71 1014.8
20260504005604 54 232 8.0 11.0 0.00 0.00 0.00 67 1014.5
20260504005103 54 234 6.0 9.0 0.00 0.00 0.00 69 1014.5
20260504004606 54 246 7.0 10.0 0.00 0.00 0.00 69 1014.5
20260504004124 54 247 8.0 10.0 0.00 0.00 0.00 68 1014.4
20260504003603 54 243 7.0 9.0 0.00 0.00 0.00 67 1014.4
20260504003104 55 235 6.0 10.0 0.00 0.00 0.00 66 1014.3
20260504002603 55 236 5.0 10.0 0.00 0.00 0.00 65 1014.3
20260504002103 55 246 8.0 11.0 0.00 0.00 0.00 64 1014.2
20260504001603 55 249 7.0 11.0 0.00 0.00 0.00 67 1014.2
20260504001104 55 252 8.0 12.0 0.00 0.00 0.00 68 1014.1
20260504000603 55 257 9.0 12.0 0.00 0.00 0.00 65 1014.2
20260504000103 56 260 10.0 13.0 0.00 0.00 0.00 64 1014.1
20260503235603 56 264 9.0 13.0 0.00 0.00 0.00 65 1014.0
20260503235104 56 268 11.0 17.0 0.00 0.00 0.00 61 1013.9
20260503234603 56 268 12.0 17.0 0.00 0.00 0.00 61 1013.8
20260503234104 56 265 13.0 16.0 0.00 0.00 0.00 58 1013.7
20260503233603 56 266 10.0 15.0 0.00 0.00 0.00 62 1013.7
20260503233103 56 268 13.0 16.0 0.00 0.00 0.00 58 1013.7
20260503232603 57 269 12.0 17.0 0.00 0.00 0.00 58 1013.7
20260503232103 57 275 14.0 17.0 0.00 0.00 0.00 57 1013.7